Location: Unspecified
(45.3712°N, 0.6436°E)
Time: 23:27:04
(UTC+02:00)

ISS - Pass Details

Date: 20 July 2018
Orbit: 402 x 408 km, 51.6° (Epoch: 16 July)

Event Time Altitude Azimuth Distance (km) Brightness Sun altitude
Rises 03:48:55 0° 298° (WNW) 2,330 0.1 -19.7°
Reaches altitude 10° 03:51:05 10° 306° (NW) 1,469 -0.9 -19.6°
Maximum altitude 03:54:13 39° 18° (NNE) 622 -2.4 -19.3°
Drops below altitude 10° 03:57:21 10° 90° (E) 1,467 -0.7 -19.1°
Sets 03:59:30 0° 98° (E) 2,326 0.3 -18.9°
